Regional Weather Roundup
Issued by NWS

Home | Current Version | Previous Version | Graphics & Text | Print | Product List | Glossary On
Versions: 1 2 3 4 5 6 7 8 9 10 11 12 13 14 15 16 17 18 19 20 21 22 23 24 25 26 27 28 29 30 31 32 33 34 35 36 37 38 39 40 41 42 43 44 45 46 47 48 49 50
000
ASUS45 KABQ 280301
RWRNM
WEATHER ROUNDUP FOR NEW MEXICO
NATIONAL WEATHER SERVICE ALBUQUERQUE NM
900 PM MDT FRI MAR 27 2015

NOTE: "FAIR" MEANS FEW OR NO CLOUDS BELOW 12,000 FEET AGL WITH NO
       SIGNIFICANT WEATHER OR OBSTRUCTIONS TO VISION.

      THIS PRODUCT IS RELEASED AS TWO VERSIONS.  ONE VERSION NEAR
      THE TOP OF THE HOUR CONTAINING PRELIMINARY DATA FROM ALBUQUERQUE
      AND OTHER STATIONS.  A FINAL VERSION WITH ADDITIONAL DATA IS
      ISSUED ABOUT 10 MINUTES AFTER THE HOUR.

NMZ501-503-504-510>518-280400-
NORTHWEST PLATEAU/NORTHCENTRAL MOUNTAINS

CITY           SKY/WX    TMP DP  RH WIND       PRES   REMARKS
FARMINGTON     CLEAR     60  20  21 W10       30.18R
SANTA FE       CLEAR     54  13  19 W7        30.19R
TAOS           MOCLDY    55  25  30 NE5       30.24R
ANGEL FIRE     FAIR      45  28  51 NE6       30.30R

$$
NMZ402-403-502-505>509-280400-
WESTCENTRAL MOUNTAINS/SOUTHWEST MOUNTAINS

CITY           SKY/WX    TMP DP  RH WIND       PRES   REMARKS
GALLUP         CLEAR     57  15  19 W6        30.26R
GRANTS         CLEAR     51  13  21 CALM      30.27R

$$
NMZ407-409-411-412-280400-
SOUTHERN DESERTS

CITY           SKY/WX    TMP DP  RH WIND       PRES   REMARKS
DEMING         CLEAR     65  12  12 SW8       30.14R
ALAMOGORDO     PTCLDY    59  18  20 E8        30.14R
T OR C         CLEAR     65  20  17 NE3       30.14R

$$
NMZ519>523-280400-
CENTRAL VALLEYS/CENTRAL HIGHLANDS

CITY           SKY/WX    TMP DP  RH WIND       PRES   REMARKS
ALBUQUERQUE    CLEAR     68  13  12 NW12      30.16R
DOUBLE EAGLE   CLEAR     55  12  18 NW8       30.19R
MORIARTY ARPT  FAIR      56   9  15 W6        30.21R
CLINES CORNERS CLEAR     49  15  25 W12       30.22R
BELEN          FAIR      58  13  17 N8        30.16R
SOCORRO        FAIR      65  17  15 SW9       30.14R

$$
NMZ524>526-539-540-280400-
SOUTHCENTRAL MOUNTAINS

CITY           SKY/WX    TMP DP  RH WIND       PRES   REMARKS
RUIDOSO        NOT AVBL

$$
NMZ527>531-280400-
NORTHEAST HIGHLANDS/NORTHEAST PLAINS

CITY           SKY/WX    TMP DP  RH WIND       PRES   REMARKS
LAS VEGAS      CLEAR     53  19  26 NW10      30.19R
RATON          PTCLDY    59  20  22 SE10      30.15R
CLAYTON        MOCLDY    56  30  37 CALM      30.15R

$$
NMZ532>537-280400-
EASTCENTRAL PLAINS

CITY           SKY/WX    TMP DP  RH WIND       PRES   REMARKS
TUCUMCARI      CLEAR     55  27  34 S9        30.05R
CANNON AFB     NOT AVBL
CLOVIS AIRPORT CLEAR     54  30  40 SE8       30.11R

$$
NMZ028-029-538-280400-
SOUTHEAST PLAINS

CITY           SKY/WX    TMP DP  RH WIND       PRES   REMARKS
ROSWELL        CLEAR     62  30  29 S10       30.08R
ARTESIA        CLEAR     63  30  29 S8        30.09R
CARLSBAD       CLEAR     55  35  47 SW9       30.07R
HOBBS          CLEAR     59  25  27 S8        30.12R


$$


USA.gov is the U.S. government's official web portal to all federal, state and local government web resources and services.